Home   Weather   Ski   Past weeks

Flag for Norway Past Weather in Ski, Norway — Yesterday and Last 2 Weeks

Now
59 °F

Partly cloudy.


Feels Like: 53 °F
Forecast: 51 / 60 °F
Wind: 51 mph from South

Location: Statfjord B

Current Time: Sep 25, 2016 at 5:50:07 AM

Latest Report: Sep 25, 2016 at 4:50 AM


Visibility: 5 mi

Pressure: 29.62 "Hg

Humidity: 94%

Dew Point: 57 °F

Location of SkiLocation

Past Weather in Ski — Graph

°F

Ski Temperature Yesterday

Maximum temperature yesterday: 59 °F (at 12:20 PM)
Minimum temperature yesterday: 54 °F (at 2:50 AM)
Average temperature yesterday: 57 °F

High & Low Weather Summary for the Past Weeks

 TemperatureHumidityPressure
High70 °F (Sep 16, 6:20 AM)100% (Sep 11, 3:20 AM)30.21 "Hg (Sep 11, 3:20 AM)
Low50 °F (Sep 14, 6:50 AM)60% (Sep 16, 6:20 AM)29.45 "Hg (Sep 10, 4:20 AM)
Average57 °F91%29.95 "Hg
* Reported Sep 10 4:20 AM — Sep 25 4:50 AM, Ski, Weather by CustomWeather, © 2016

Note: Actual official high and low records may vary slightly from our data, if they occured in-between our weather recording intervals... More about our weather records

Advertising

Ski Weather History for the Previous 24 Hours

Scroll right to see more
 ConditionsComfort  
Time TempWeatherWind HumidityBarometerVisibility
4:50 AM
Sun, Sep 25
59 °FPartly cloudy.51 mph94%29.62 "Hg5 mi
4:20 AM59 °FPassing clouds.51 mph94%29.62 "Hg5 mi
3:50 AM59 °FPartly cloudy.50 mph94%29.62 "Hg5 mi
3:20 AM59 °FPassing clouds.52 mph94%29.65 "Hg5 mi
2:50 AM59 °FOvercast.51 mph88%29.65 "Hg6 mi
2:20 AM59 °FOvercast.51 mph88%29.65 "Hg5 mi
1:50 AM59 °FOvercast.50 mph88%29.65 "Hg5 mi
1:20 AM57 °FOvercast.50 mph94%29.65 "Hg6 mi
12:50 AM57 °FPassing clouds.51 mph94%29.65 "Hg6 mi
12:20 AM57 °FPassing clouds.50 mph94%29.65 "Hg6 mi
11:50 PM
Sat, Sep 24
57 °FPassing clouds.48 mph94%29.65 "Hg6 mi
11:20 PM57 °FOvercast.45 mph94%29.65 "Hg4 mi
10:50 PM57 °FPassing clouds.46 mph94%29.65 "Hg6 mi
10:20 PM57 °FPassing clouds.48 mph94%29.65 "Hg5 mi
9:50 PM57 °FPartly cloudy.43 mph94%29.65 "Hg5 mi
9:20 PM57 °FPassing clouds.45 mph94%29.65 "Hg5 mi
8:50 PM57 °FPassing clouds.43 mph94%29.65 "Hg5 mi
8:20 PM57 °FOvercast.43 mph94%29.65 "Hg5 mi
7:50 PM57 °FOvercast.43 mph94%29.65 "Hg4 mi
7:20 PM57 °FLow clouds.43 mph94%29.65 "Hg4 mi
6:50 PM57 °FLight rain. Fog.45 mph94%29.65 "Hg2 mi
6:20 PM57 °FPartly sunny.47 mph94%29.65 "Hg6 mi
5:50 PM57 °FOvercast.48 mph94%29.65 "Hg6 mi
5:20 PM57 °FPartly sunny.47 mph94%29.65 "Hg6 mi
4:50 PM57 °FOvercast.48 mph94%29.65 "Hg6 mi
4:20 PM59 °FPartly sunny.48 mph88%29.65 "Hg6 mi
3:50 PM59 °FBroken clouds.50 mph88%29.65 "Hg6 mi
3:20 PM59 °FPartly sunny.52 mph88%29.65 "HgN/A
2:50 PM59 °FPartly sunny.54 mph82%29.65 "HgN/A
2:20 PM59 °FPartly sunny.53 mph82%29.65 "HgN/A
1:50 PM59 °FPartly sunny.53 mph82%29.68 "HgN/A
1:20 PM59 °FBroken clouds.54 mph82%29.68 "HgN/A
12:50 PM59 °FPartly sunny.52 mph82%29.68 "HgN/A
12:20 PM59 °FPartly sunny.50 mph82%29.71 "HgN/A
11:50 AM57 °FOvercast.48 mph88%29.68 "HgN/A
11:20 AM57 °FPartly sunny.46 mph88%29.71 "HgN/A
10:50 AM57 °FPartly sunny.45 mph88%29.71 "HgN/A
10:20 AM57 °FPartly sunny.40 mph94%29.74 "HgN/A
9:50 AM57 °FOvercast.41 mph88%29.74 "HgN/A
9:20 AM55 °FPartly sunny.40 mph100%29.74 "HgN/A
8:50 AM55 °FSprinkles. Low clouds.43 mph100%29.74 "Hg4 mi
8:20 AM55 °FOvercast.43 mph94%29.74 "HgN/A
7:50 AM55 °FLight rain. Partly sunny.43 mph94%29.74 "HgN/A
7:20 AM57 °FOvercast.45 mph88%29.74 "HgN/A
6:50 AM55 °FPassing clouds.43 mph94%29.77 "Hg5 mi
6:20 AM55 °FPassing clouds.43 mph100%29.77 "HgN/A
5:50 AM55 °FSprinkles. Fog.45 mph100%29.77 "Hg3 mi
5:20 AM55 °FSprinkles. Passing clouds.46 mph94%29.80 "Hg4 mi
Weather by CustomWeather, © 2016

See weather overviewHow to use our weather pages